sat.trackr.live / text

‹ back to catalog

KUIPER-00138

NORAD 65964 · 2025-228T

PAYLOAD ACTIVE UNKNOWN

§ Identity

Operator
Country
US
Launch date
2025-10-14
Launch site
AFETR
Launch vehicle
Mass (kg)
RCS (m²)

External: N2YO · Heavens-Above · Gunter

§ Orbital elements

Epoch: 2026-05-24T23:44:25.611648Z

Period
97.30 min
Inclination
51.9007°
Eccentricity
0.0000712
Mean motion
14.79932529 rev/d
Perigee alt
629.0 km
Apogee alt
630.0 km
Semi-major
7,007.7 km
B*
1.6894e-4
RAAN
5.6845°
Arg perigee
107.0470°
Mean anomaly
253.0571°
Rev number
3,477

§ Raw data

KUIPER-001381 65964U 25228T   26144.98918532  .00001067  00000+0  16894-3 0  99952 65964  51.9007   5.6845 0000712 107.0470 253.0571 14.79932529 34776

JSON: /api/v1/satellites/65964 · /tle

For live sub-satellite position, see the globe view (requires WebGL).

§ Visibility from observer

Set your observer location to see the next 7 days of passes ≥ 10°. The values pass through the URL so the page stays shareable.

No JS? Fill the form by hand. The geolocation button needs JavaScript.